Terminal Aerodrome Forecast
Issued by NWS Paducah, KY

Home | Current Version | Previous Version | Text Only | Print | Product List | Glossary On
Versions: 1 2 3 4 5 6 7 8 9 10 11 12 13 14 15 16 17
000
FTUS43 KPAH 300520
TAFPAH
TAF
KPAH 300520Z 3006/0106 30003KT 5SM BR BKN009
     FM300830 32002KT P6SM SCT030 BKN080
      TEMPO 3012/3014 5SM BR
     FM301500 30003KT P6SM VCSH BKN035 OVC070=

USA.gov is the U.S. government's official web portal to all federal, state and local government web resources and services.